TimeEDT,TemperatureF,Dew PointF,Humidity,Sea Level PressureIn,VisibilityMPH,Wind Direction,Wind SpeedMPH,Gust SpeedMPH,PrecipitationIn,Events,Conditions,WindDirDegrees,DateUTC
12:54 AM,60.1,59.0,96,29.91,-9999.0,Calm,Calm,-,N/A,,Unknown,0,2013-08-04 04:54:00
1:54 AM,60.1,57.9,93,29.90,-9999.0,Calm,Calm,-,N/A,,Unknown,0,2013-08-04 05:54:00
2:54 AM,59.0,59.0,100,29.90,-9999.0,Calm,Calm,-,N/A,,Unknown,0,2013-08-04 06:54:00
3:54 AM,59.0,57.9,96,29.89,-9999.0,Calm,Calm,-,N/A,,Unknown,0,2013-08-04 07:54:00
4:54 AM,57.9,55.9,93,29.89,-9999.0,Calm,Calm,-,N/A,,Unknown,0,2013-08-04 08:54:00
5:54 AM,57.0,55.0,93,29.90,-9999.0,Calm,Calm,-,N/A,,Unknown,0,2013-08-04 09:54:00
6:54 AM,57.0,55.9,96,29.91,-9999.0,Calm,Calm,-,N/A,,Unknown,0,2013-08-04 10:54:00
7:54 AM,61.0,59.0,93,29.92,-9999.0,Calm,Calm,-,N/A,,Unknown,0,2013-08-04 11:54:00
8:54 AM,63.0,59.0,87,29.92,-9999.0,Calm,Calm,-,N/A,,Unknown,0,2013-08-04 12:54:00
9:54 AM,70.0,57.9,65,29.91,-9999.0,Variable,5.8,-,N/A,,Unknown,0,2013-08-04 13:54:00
10:54 AM,72.0,59.0,64,29.92,-9999.0,Variable,3.5,-,N/A,,Unknown,0,2013-08-04 14:54:00
11:54 AM,73.0,55.0,53,29.93,-9999.0,Variable,3.5,-,N/A,,Unknown,0,2013-08-04 15:54:00
12:54 PM,72.0,55.0,55,29.92,-9999.0,Variable,5.8,-,N/A,,Unknown,0,2013-08-04 16:54:00
1:54 PM,75.0,54.0,48,29.91,-9999.0,North,5.8,-,N/A,,Unknown,350,2013-08-04 17:54:00
2:54 PM,75.9,55.0,48,29.90,-9999.0,NW,4.6,-,N/A,,Unknown,310,2013-08-04 18:54:00
3:54 PM,75.9,54.0,46,29.89,-9999.0,NNW,10.4,-,N/A,,Unknown,340,2013-08-04 19:54:00
4:54 PM,75.0,55.0,50,29.90,-9999.0,Variable,5.8,-,N/A,,Unknown,0,2013-08-04 20:54:00
5:54 PM,75.0,55.0,50,29.90,-9999.0,Variable,5.8,-,N/A,,Unknown,0,2013-08-04 21:54:00
6:54 PM,73.9,53.1,48,29.92,-9999.0,Calm,Calm,-,N/A,,Unknown,0,2013-08-04 22:54:00
7:54 PM,69.1,53.1,57,29.93,-9999.0,Variable,4.6,-,N/A,,Unknown,0,2013-08-04 23:54:00
8:54 PM,63.0,53.1,70,29.96,-9999.0,Calm,Calm,-,N/A,,Unknown,0,2013-08-05 00:54:00
9:54 PM,66.0,48.9,54,29.98,-9999.0,NNW,5.8,-,N/A,,Unknown,340,2013-08-05 01:54:00
10:54 PM,63.0,48.9,60,29.99,-9999.0,North,3.5,-,N/A,,Unknown,350,2013-08-05 02:54:00
11:54 PM,59.0,52.0,78,30.01,-9999.0,Calm,Calm,-,N/A,,Unknown,0,2013-08-05 03:54:00